Location: Omaha
(41.2590°N, 95.9380°W)
Time: 09:53:40
(UTC-05:00)

Envisat - Pass Details

Date: 15 October 2017
Orbit: 764 x 766 km, 98.2° (Epoch: 17 October)

Event Time Altitude Azimuth Distance (km) Brightness Sun altitude
Exits shadow 22:03:28 24° 300° (WNW) 1,534 5.0 -37.9°
Drops below altitude 10° 22:06:08 10° 326° (NW) 2,308 6.0 -38.3°
Sets 22:08:42 0° 337° (NNW) 3,239 6.8 -38.8°
